Погода в Максатихе

Погода в Максатихе : погода сейчас, прогноз погоды и архив. Всё, что Вы хотите узнать о погоде в Максатихе!

Поиск расширенной информации на нашем сайте:

Другие новости

Новости СМИ2

Главная страница сайта

Новости сайта

03.07.2017

Напоминаем, что на нашем специализированном сайте Метеоцентр.Азия вы можете получить высокодетализированные автоматические прогнозы погоды по пунктам России, СНГ и мира в авиационном формате (включающие направление и скорость ветра, видимость, явления погоды, количество и форму облачности, нижнюю и верхнюю границу облачности).

Рекомендуем: Стирка пуховика и подушек в стиральной машине moyatehnika.ru.

Погода в Максатихе - сегодня

Время (UTC), дата Ветер
(°,м/с) 
Видим.   Явления Облачность Т
(°С)
Тd
(°С)
f(%) Тe
(°С)
Pmin
(гПа)
dP
(гПа)
Po
(мм)
O2
(г/м3)
Тmin Tmax R s Состояние
почвы
09 16.08.17 130 (ЮВ) 10 км    4/3 600 м верхняя 
[Cu hum|Ci fib]
+20.8 +8.6 45 +21  1029.4  -0.3  759  283           
12 16.08.17 140 (ЮВ) 10 км    5/3 600 м верхняя 
[Cu hum|Ci fib]
+21.7 +7.8 41 +22  1027.9  -1.4  758  282           
15 16.08.17 160 (Ю) 10 км    9/0 средняя, верхняя 
[Ac lent|Ci]
+21.5 +9.3 46 +22  1026.9  -1  758  281           
18 16.08.17 тихо ()   10 км    3/0 верхняя 
[Ci fib]
+13.5 +11.8 89 +17  1027.2  0.1  758  289    +22.5       
21 16.08.17 тихо ()   2000 м  дымка  ясно 
+9.5 +9 97 +10  1027.5  758  293           
00 17.08.17 тихо ()   2000 м  дымка  9/9 600 м 
[Sc]
+8.7 +8.4 98 +9  1027.5  758  294           
03 17.08.17 тихо ()   10 км    9/9 600 м 
[Sc]
+11.5 +11 97 +14  1027  -0.4  757  291  +8.1         
06 17.08.17 140 (ЮВ) 10 км    3/0 средняя 
[Ac trans]
+20.1 +12.8 63 +25  1026.3  -0.2  757  282  +8.1        сухая 
09 17.08.17 160 (Ю) 10 км    1/1 1000 м 
[Cu hum]
+23.7 +11.3 46 +26  1025.5  -0.5  757  278           
12 17.08.17 160 (Ю) 10 км    9/9 600 м 
[Sc]
+22.9 +13.4 55 +29  1025.1  -0.5  756  279           
15 17.08.17 170 (Ю) 10 км    4/4 600 м 
[Cu Sc]
+23.7 +12.9 51 +29  1023.8  -1.2  755  278           
18 17.08.17 170 (Ю) 10 км    3/3 600 м 
[Sc]
+17.3 +15 86 +27  1024.1  0.1  755  283    +24.9       
21 17.08.17 180 (Ю) 10 км    ясно 
+15.7 +13.4 86 +23  1024.3  0.1  755  285           
00 18.08.17 тихо ()   10 км    3/0 верхняя 
[Ci fib]
+14.7 +12.9 89 +20  1023.9  -0.4  755  286           
03 18.08.17 120 (ЮВ) 4000 м  дымка  9/6 1000 м средняя, верхняя 
[Sc|Ac trans|Ci fib]
+13.3 +12.8 97 +20  1023.5  -0.5  755  287  +12         
06 18.08.17 160 (Ю) 10 км    9/5 1000 м средняя, верхняя 
[Sc|Ac trans|Cc]
+18.7 +15.4 81 +29  1023.1  -0.1  755  281  +12        сухая 
09 18.08.17 170 (Ю) 10 км    9/3 1000 м средняя, верхняя 
[Sc|Ac trans|Cc]
+24.6 +16.7 61 +36  1021.7  -1  754  275           
12 18.08.17 180 (Ю) 10 км    9/3 600 м средняя, верхняя 
[Cu med, cong|Ac trans|Ci fib]
+26.6 +17.3 57 +39  1020.5  -1.1  753  273           
15 18.08.17 200 (Ю) 10 км    9/1 1000 м средняя, верхняя 
[Sc diur, vesp|Ac trans|Cc]
+25.4 +16.3 57 +36  1019.6  -0.9  752  274           
18 18.08.17 220 (ЮЗ) 10 км    9/6 600 м средняя 
[Sc diur, vesp|Ac As]
+21.6 +13.4 60 +28  1020.3  0.4  753  278    +27.1       
21 18.08.17 150 (ЮВ) 4000 м  в посл. час гроза{ливн. осадки}  1/0 средняя 
[Ac trans]
+16.6 +15.7 94 +28  1020  -0.5  752  282           
00 19.08.17 320 (СЗ) 10 км  в посл. час ливневой дождь{гроза}  9/9 600 м кучево-дожд. 
[Cb cap]
+16.9 +15.4 91 +27  1021  753  282           
03 19.08.17 150 (ЮВ) 4000 м  слаб. ливневой дождь  9/9 1000 м кучево-дожд. 
[Cb cap]
+15.8 +15.1 96 +26  1019.7  -1.4  752  283  +15.8       
06 19.08.17 190 (Ю) 10 км  {ливн. осадки}  8/4 600 м средняя, верхняя 
[Sc diur, vesp|Ac cuf|Ci fib]
+19.4 +16.1 81 +31  1019.2  -0.3  752  279  +15.8      влажная 
09 19.08.17 190 (Ю) 10 км    5/0 средняя, верхняя 
[Ac trans|Ci fib]
+26.4 +17 56 +39  1019.2  0.3  752  273           
Время (UTC), дата Ветер
(°,м/с) 
Видим.   Явления Облачность Т
(°С)
Тd
(°С)
f(%) Тe
(°С)
Pmin
(гПа)
dP
(гПа)
Po
(мм)
O2
(г/м3)
Тmin Tmax R s Состояние
почвы

Для получения пояснительной информации подведите курсор к названию столбца.

ПОГОДА в Максатихе - архив

Всё, что Вы хотите узнать о погоде в Максатихе - удобно и подробно!

Выберите нужную дату (начиная с 1 января 2015* года) и нажмите кнопку "Найти".
Будут отображены архивные сводки погоды по пункту Максатиха, начиная с указанной даты.


Отображать данные в формате CSV (для использования в таблицах Excel)


Внимание! Наш архив погоды предназначен исключительно для личного некоммерческого использования в познавательных целях. Если Вам необходимы официальные справки о состоянии погоды (для производственных, юридических, коммерческих и т.п. целей), обращайтесь в органы Росгидромета.

*Примечание: данная дата относится к архиву по метеостанциям СССР (Россия, СНГ, Балтия).
Архив по метеостанциям Зарубежной Европы и Азии (кроме Китая) хранится 10 дней, по другим регионам земного шара (Китай, Африка, Америка, Австралия, Океания) - 1 день.

Максатиха - район местоположения метеостанции


Название, широта, долгота, высота метеостанции:
Максатиха 57.8°ш. 35.9°д. 140 м над ур. моря [Российская Федерация]

Дополнительная информация

В oтличие oт бoльшинства пoгoдных сайтoв мы публикуем пoдрoбную метеoинфoрмацию в детальнoм прoфессиoнальнoм фoрмате.

Характеристики температуры и влажнoсти вoздуха измеряются на высoте 2 м в тени вдали oт зданий и деревьев.
Скoрoсть ветра измеряется на высoте 10 м (на урoвне рoста челoвека скoрoсть ветра ниже в 1.5-2 раза). Если метеoстанция нахoдится в гoрoде или в лесу, тo скoрoсть ветра занижена на 2-4 м/с пo сравнению с oткрытым местoм. Скoрoсть ветра над акватoриями крупных рек и oзёр, а также на вершинах хoлмoв на 2-5 м/с выше, чем в oбычных услoвиях.
Атмoсфернoе давление в разных тoчках местнoсти мoжет значительнo oтличаться oт давления на метеoстанции, в зависимoсти oт услoвий рельефа (при пoдъёме на 10 м давление пoнижается примернo на 1 мм рт.ст.).